sat.trackr.live / text

‹ back to catalog

STARLINK-36305

NORAD 68189 · 2026-050Y

PAYLOAD ACTIVE UNKNOWN

§ Identity

Operator
Country
US
Launch date
2026-03-14
Launch site
AFETR
Launch vehicle
Mass (kg)
RCS (m²)

Purposes: comms

External: N2YO · Heavens-Above · Gunter

§ Orbital elements

Epoch: 2026-05-25T02:03:32.863392Z

Period
93.85 min
Inclination
53.1590°
Eccentricity
0.0001139
Mean motion
15.34377947 rev/d
Perigee alt
462.0 km
Apogee alt
463.5 km
Semi-major
6,840.9 km
B*
8.2638e-4
RAAN
271.6194°
Arg perigee
65.9952°
Mean anomaly
294.1170°
Rev number
1,228

§ Raw data

STARLINK-363051 68189U 26050Y   26145.08579703  .00027628  00000+0  82638-3 0  99962 68189  53.1590 271.6194 0001139  65.9952 294.1170 15.34377947 12284

JSON: /api/v1/satellites/68189 · /tle

For live sub-satellite position, see the globe view (requires WebGL).

§ Visibility from observer

Set your observer location to see the next 7 days of passes ≥ 10°. The values pass through the URL so the page stays shareable.

No JS? Fill the form by hand. The geolocation button needs JavaScript.